Voltar ao catálogo

FENGYUN 1C DEB

AtivoSSO
NORAD 30202·DEBRIS·🇨🇳 China

Lançado May 10, 1999 de Taiyuan Satellite Launch Center

Loading…

Próximas Passagens (próximas 24 horas)

TLE

AtualizadoSource: Space-Track

Época: Sep 14, 2026, 07:06 UTC

1 30202U 99025VK  26257.29618320  .00005395  00000-0  12016-2 0  9999
2 30202  98.6447   8.7927 0034545 294.0358  65.7226 14.56972584 22937

Acompanhe FENGYUN 1C DEB em tempo real com AllMySat

Download on the App Store